Total_Precipitation_Accumulation
0.00 0.00 0.00 0.00 0.00 0.00 0.00 0.00 0.00 0.00 0.00 0.00 0.00 0.00 0.00 0.00 0.00 0.00 0.00 0.00 0.00 0.00 0.00 0.00 0.00 0.00 0.00 0.01 0.00 0.00 0.00 0.07 0.06 0.18 0.51 0.06 0.09 0.07 0.06 0.04 0.07 0.09 0.11 0.12 0.07 0.06 0.06 0.04 0.03 0.06 0.01 0.01 0.00 0.00 0.00 0.00 0.00 0.00 0.00 0.00 0.00 0.00 0.00 0.01 0.02 0.02 0.02 0.01 0.02 0.01 0.02 0.03 0.03 0.02 0.03 0.02 0.03 0.02 0.02 0.04 0.05 0.09 0.08 0.11 0.07 0.08 0.04 0.02 0.02 0.03 0.03 0.02 0.02 0.04 0.03 0.04 0.04
0.00 0.00 0.00 0.00 0.00 0.00 0.00 0.00 0.00 0.00 0.00 0.00 0.00 0.00 0.00 0.00 0.00 0.00 0.00 0.00 0.00 0.00 0.00 0.00 0.00 0.00 0.00 0.00 0.00 0.00 0.02 0.04 0.01 0.06 0.21 0.16 0.08 0.12 0.19 0.11 0.04 0.09 0.17 0.15 0.08 0.06 0.10 0.11 0.04 0.04 0.02 0.02 0.01 0.00 0.00 0.00 0.00 0.00 0.00 0.00 0.00 0.02 0.07 0.02 0.02 0.02 0.01 0.01 0.01 0.03 0.02 0.03 0.03 0.04 0.03 0.03 0.03 0.02 0.02 0.02 0.09 0.07 0.08 0.08 0.08 0.10 0.03 0.05 0.02 0.04 0.03 0.03 0.03 0.06 0.06 0.04 0.05
0.00 0.00 0.00 0.00 0.00 0.00 0.00 0.00 0.00 0.00 0.00 0.00 0.00 0.00 0.00 0.00 0.00 0.00 0.00 0.00 0.00 0.00 0.00 0.00 0.00 0.00 0.00 0.00 0.00 0.00 0.56 0.08 0.02 0.05 0.16 0.19 0.13 0.40 0.17 0.26 0.14 0.20 0.30 0.26 0.08 0.09 0.10 0.10 0.04 0.07 0.04 0.02 0.01 0.00 0.01 0.00 0.00 0.00 0.00 0.00 0.00 0.01 0.02 0.03 0.02 0.02 0.02 0.02 0.02 0.02 0.04 0.06 0.05 0.07 0.06 0.03 0.01 0.00 0.01 0.03 0.04 0.07 0.11 0.10 0.03 0.11 0.08 0.02 0.03 0.05 0.05 0.09 0.06 0.05 0.07 0.04 0.03
0.00 0.00 0.00 0.00 0.00 0.00 0.00 0.00 0.00 0.00 0.00 0.00 0.00 0.00 0.00 0.00 0.00 0.00 0.00 0.00 0.00 0.00 0.00 0.00 0.00 0.00 0.00 0.01 0.05 0.00 0.06 0.09 0.08 0.03 0.17 0.17 0.08 0.15 0.17 0.31 0.26 0.36 0.43 0.21 0.09 0.11 0.09 0.16 0.04 0.06 0.06 0.02 0.01 0.01 0.01 0.01 0.01 0.00 0.00 0.00 0.00 0.00 0.01 0.01 0.02 0.03 0.03 0.03 0.04 0.04 0.04 0.06 0.09 0.07 0.03 0.02 0.01 0.05 0.03 0.01 0.01 0.03 0.03 0.06 0.03 0.06 0.05 0.05 0.04 0.06 0.08 0.05 0.04 0.04 0.03 0.01 0.02
0.00 0.00 0.00 0.00 0.00 0.00 0.00 0.00 0.00 0.00 0.00 0.00 0.00 0.00 0.00 0.00 0.00 0.00 0.00 0.00 0.00 0.00 0.00 0.00 0.00 0.00 0.00 0.02 0.01 0.04 0.35 0.06 0.06 0.05 0.04 0.08 0.05 0.15 0.40 0.35 0.33 0.39 0.20 0.25 0.14 0.08 0.11 0.06 0.05 0.06 0.06 0.03 0.01 0.01 0.01 0.01 0.01 0.00 0.00 0.00 0.00 0.01 0.01 0.01 0.02 0.03 0.03 0.02 0.05 0.07 0.08 0.09 0.11 0.09 0.05 0.03 0.01 0.03 0.01 0.02 0.01 0.01 0.01 0.00 0.03 0.01 0.01 0.01 0.02 0.03 0.03 0.06 0.05 0.03 0.02 0.03 0.02
0.00 0.00 0.00 0.00 0.00 0.00 0.00 0.00 0.00 0.00 0.00 0.00 0.00 0.00 0.00 0.00 0.00 0.00 0.00 0.00 0.00 0.00 0.00 0.00 0.00 0.00 0.02 0.07 0.06 0.11 0.07 0.12 0.06 0.04 0.05 0.15 0.09 0.33 0.63 0.79 0.49 0.39 0.16 0.17 0.14 0.14 0.21 0.04 0.04 0.04 0.06 0.06 0.02 0.02 0.01 0.01 0.01 0.01 0.00 0.00 0.00 0.01 0.01 0.01 0.03 0.02 0.03 0.05 0.06 0.07 0.08 0.08 0.07 0.09 0.06 0.10 0.02 0.02 0.05 0.01 0.00 0.00 0.01 0.02 0.01 0.01 0.01 0.01 0.01 0.01 0.07 0.07 0.04 0.03 0.02 0.03 0.03
0.00 0.00 0.00 0.00 0.00 0.00 0.00 0.00 0.00 0.00 0.00 0.00 0.00 0.00 0.00 0.00 0.00 0.00 0.00 0.00 0.00 0.00 0.00 0.00 0.00 0.00 0.07 0.02 0.00 0.07 0.06 0.04 0.10 0.07 0.05 0.11 0.35 0.63 0.85 0.73 0.39 0.19 0.14 0.14 0.16 0.20 0.13 0.04 0.03 0.04 0.05 0.05 0.11 0.04 0.02 0.03 0.02 0.00 0.01 0.01 0.02 0.01 0.02 0.02 0.02 0.03 0.05 0.05 0.04 0.08 0.08 0.08 0.11 0.09 0.08 0.11 0.05 0.02 0.04 0.00 0.00 0.00 0.01 0.01 0.02 0.06 0.03 0.02 0.01 0.01 0.01 0.10 0.01 0.03 0.02 0.01 0.01
0.00 0.00 0.00 0.00 0.00 0.00 0.00 0.00 0.00 0.00 0.00 0.00 0.00 0.00 0.00 0.00 0.00 0.00 0.00 0.00 0.00 0.00 0.00 0.00 0.00 0.01 0.53 0.01 0.30 0.01 0.06 0.03 0.11 0.14 0.04 0.16 0.45 1.33 1.13 0.72 0.25 0.15 0.19 0.18 0.21 0.14 0.21 0.03 0.03 0.02 0.03 0.03 0.19 0.17 0.08 0.06 0.03 0.01 0.01 0.03 0.02 0.03 0.06 0.03 0.03 0.03 0.03 0.05 0.10 0.09 0.18 0.12 0.08 0.11 0.12 0.15 0.18 0.07 0.07 0.01 0.02 0.03 0.01 0.02 0.02 0.05 0.05 0.02 0.02 0.02 0.02 0.04 0.02 0.00 0.01 0.01 0.00
0.00 0.00 0.00 0.00 0.00 0.00 0.00 0.00 0.00 0.00 0.00 0.00 0.00 0.00 0.00 0.00 0.00 0.00 0.00 0.00 0.00 0.00 0.00 0.00 0.00 0.05 0.13 0.09 0.15 0.09 0.11 0.12 0.08 0.26 0.20 0.25 0.89 1.80 1.84 1.28 0.43 0.14 0.20 0.35 0.28 0.13 0.09 0.04 0.02 0.01 0.02 0.03 0.05 0.14 0.11 0.14 0.06 0.04 0.03 0.04 0.03 0.07 0.10 0.05 0.05 0.04 0.07 0.05 0.06 0.12 0.24 0.12 0.07 0.07 0.04 0.07 0.13 0.08 0.04 0.07 0.03 0.04 0.02 0.02 0.04 0.06 0.02 0.03 0.03 0.06 0.06 0.03 0.02 0.02 0.00 0.00 0.00
0.00 0.00 0.00 0.00 0.00 0.00 0.00 0.00 0.00 0.00 0.00 0.00 0.00 0.00 0.00 0.00 0.00 0.00 0.00 0.00 0.00 0.00 0.00 0.00 0.00 0.01 0.04 0.37 0.18 0.24 0.21 0.16 0.24 0.34 0.15 0.41 1.26 2.24 1.34 0.80 0.67 0.36 0.69 0.63 0.38 0.19 0.11 0.23 0.02 0.02 0.01 0.01 0.04 0.09 0.04 0.02 0.04 0.04 0.02 0.04 0.08 0.05 0.05 0.12 0.03 0.05 0.04 0.08 0.05 0.07 0.11 0.11 0.09 0.06 0.21 0.17 0.25 0.17 0.09 0.05 0.03 0.04 0.03 0.03 0.07 0.10 0.03 0.03 0.08 0.05 0.06 0.09 0.05 0.02 0.01 0.00 0.00
0.00 0.00 0.00 0.00 0.00 0.00 0.00 0.00 0.00 0.00 0.00 0.00 0.00 0.00 0.00 0.00 0.00 0.00 0.00 0.00 0.00 0.00 0.00 0.00 0.01 0.01 0.02 0.22 0.52 0.25 0.30 0.34 0.51 0.42 0.29 0.71 1.66 1.77 1.14 0.90 0.69 0.77 0.88 0.81 0.53 0.36 0.21 0.15 0.25 0.03 0.01 0.02 0.04 0.11 0.11 0.05 0.01 0.01 0.01 0.01 0.01 0.03 0.04 0.04 0.05 0.04 0.05 0.09 0.08 0.12 0.11 0.15 0.10 0.05 0.08 0.18 0.22 0.12 0.07 0.05 0.04 0.06 0.04 0.05 0.04 0.02 0.02 0.03 0.06 0.04 0.11 0.02 0.02 0.01 0.00 0.00 0.00
0.00 0.00 0.00 0.00 0.00 0.00 0.00 0.00 0.00 0.00 0.00 0.00 0.00 0.00 0.00 0.00 0.00 0.00 0.00 0.00 0.00 0.00 0.00 0.00 0.06 0.00 0.11 0.18 0.25 0.49 0.50 0.32 0.57 0.32 0.65 0.77 1.03 1.49 1.04 0.81 0.69 0.73 0.60 0.53 0.34 0.31 0.30 0.19 0.16 0.46 0.02 0.02 0.05 0.06 0.11 0.20 0.11 0.02 0.01 0.01 0.01 0.01 0.03 0.02 0.02 0.06 0.08 0.06 0.06 0.04 0.03 0.07 0.17 0.11 0.06 0.07 0.07 0.05 0.10 0.08 0.09 0.09 0.07 0.03 0.02 0.03 0.02 0.03 0.01 0.01 0.04 0.01 0.00 0.00 0.00 0.00 0.00
0.00 0.00 0.00 0.00 0.00 0.00 0.00 0.00 0.00 0.00 0.00 0.00 0.00 0.00 0.00 0.00 0.00 0.00 0.00 0.00 0.00 0.00 0.00 0.00 0.00 0.01 0.50 0.16 0.28 0.46 0.51 0.51 0.48 0.43 0.78 1.02 0.46 0.89 0.98 1.00 0.82 0.56 0.52 0.38 0.34 0.23 0.18 0.11 0.14 0.18 0.22 0.09 0.04 0.12 0.12 0.32 0.28 0.19 0.21 0.12 0.05 0.02 0.05 0.03 0.04 0.04 0.05 0.12 0.05 0.03 0.09 0.09 0.15 0.07 0.12 0.12 0.07 0.08 0.08 0.03 0.03 0.03 0.09 0.03 0.02 0.01 0.02 0.02 0.03 0.04 0.03 0.01 0.00 0.00 0.00 0.00 0.00
0.00 0.00 0.00 0.00 0.00 0.00 0.00 0.00 0.00 0.00 0.00 0.00 0.00 0.00 0.00 0.00 0.00 0.00 0.00 0.00 0.00 0.00 0.00 0.00 0.00 0.02 0.38 0.22 0.50 0.54 0.66 0.22 0.11 0.32 0.44 0.60 0.87 1.13 1.18 1.14 0.63 0.58 0.43 0.52 0.60 0.27 0.20 0.11 0.14 0.16 0.23 0.20 0.40 0.51 0.48 0.48 0.37 0.15 0.15 0.11 0.09 0.04 0.10 0.08 0.06 0.04 0.05 0.05 0.04 0.03 0.10 0.10 0.09 0.07 0.09 0.04 0.10 0.06 0.02 0.02 0.02 0.04 0.06 0.04 0.01 0.01 0.02 0.03 0.02 0.04 0.05 0.01 0.00 0.00 0.00 0.00 0.00
0.00 0.00 0.00 0.00 0.00 0.00 0.00 0.00 0.00 0.00 0.00 0.00 0.00 0.00 0.00 0.00 0.00 0.00 0.00 0.00 0.00 0.00 0.00 0.00 0.00 0.03 1.10 0.12 0.35 0.31 0.32 0.17 0.20 0.27 0.41 0.44 0.69 1.17 0.86 0.71 0.76 0.51 0.70 0.80 1.17 0.43 0.43 0.24 0.19 0.17 0.19 0.19 0.33 0.58 0.63 0.64 0.37 0.34 0.17 0.17 0.11 0.09 0.23 0.16 0.11 0.08 0.13 0.11 0.08 0.11 0.15 0.12 0.13 0.13 0.11 0.09 0.02 0.00 0.03 0.01 0.06 0.06 0.03 0.03 0.03 0.03 0.01 0.01 0.02 0.01 0.03 0.00 0.00 0.00 0.00 0.00 0.00
0.00 0.00 0.00 0.00 0.00 0.00 0.00 0.00 0.00 0.00 0.00 0.00 0.00 0.00 0.00 0.00 0.00 0.00 0.00 0.00 0.00 0.00 0.00 0.01 0.00 0.13 0.09 0.14 0.13 0.18 0.18 0.25 0.19 0.34 0.28 0.38 0.51 0.38 0.59 0.58 0.58 0.80 0.62 1.04 0.90 0.38 0.40 0.32 0.29 0.25 0.23 0.33 0.42 0.97 0.94 0.83 0.54 0.31 0.32 0.14 0.13 0.25 0.33 0.23 0.31 0.21 0.25 0.26 0.21 0.23 0.20 0.37 0.28 0.37 0.38 0.33 0.07 0.03 0.01 0.08 0.02 0.08 0.07 0.03 0.03 0.03 0.02 0.03 0.02 0.01 0.00 0.00 0.00 0.00 0.00 0.00 0.00
0.00 0.00 0.00 0.00 0.00 0.00 0.00 0.00 0.00 0.00 0.00 0.00 0.00 0.00 0.00 0.00 0.00 0.00 0.00 0.00 0.00 0.00 0.00 0.00 0.01 0.01 0.15 0.16 0.14 0.10 0.18 0.10 0.15 0.27 0.22 0.34 0.36 0.45 0.60 0.58 0.50 0.61 0.56 0.80 0.71 0.35 0.37 0.52 0.47 0.40 0.32 0.84 0.89 0.76 0.81 0.67 0.60 0.45 0.34 0.24 0.34 0.31 0.22 0.27 0.31 0.33 0.29 0.34 0.27 0.30 0.25 0.51 0.57 0.73 0.27 0.50 0.20 0.23 0.03 0.01 0.03 0.05 0.05 0.05 0.03 0.09 0.05 0.03 0.02 0.02 0.00 0.00 0.00 0.00 0.00 0.00 0.00
0.00 0.00 0.00 0.00 0.00 0.00 0.00 0.00 0.00 0.00 0.00 0.00 0.00 0.00 0.00 0.00 0.00 0.00 0.00 0.00 0.00 0.00 0.02 0.03 0.02 0.04 0.18 0.11 0.15 0.07 0.10 0.14 0.24 0.18 0.28 0.28 0.35 0.51 0.57 0.52 0.56 0.73 0.79 1.00 0.80 0.76 0.69 1.14 0.87 0.52 0.65 0.75 0.79 0.78 0.61 0.59 1.03 0.41 0.38 0.51 0.66 0.45 0.30 0.22 0.53 0.43 0.94 0.61 0.38 0.35 0.49 0.75 0.83 1.13 0.60 0.76 0.48 0.27 0.35 0.03 0.06 0.06 0.05 0.03 0.04 0.02 0.01 0.04 0.04 0.01 0.00 0.00 0.00 0.00 0.00 0.00 0.00
0.00 0.00 0.00 0.00 0.00 0.00 0.00 0.00 0.00 0.00 0.00 0.00 0.00 0.00 0.00 0.00 0.00 0.00 0.04 0.01 0.00 0.00 0.02 0.04 0.11 0.10 0.14 0.16 0.13 0.13 0.11 0.22 0.22 0.17 0.26 0.22 0.33 0.28 0.50 0.65 1.38 1.21 1.12 2.32 1.58 1.37 1.52 1.37 1.43 0.82 0.83 1.29 1.22 1.09 0.65 0.85 0.53 0.60 1.10 0.72 0.63 0.61 0.80 0.80 0.41 0.84 0.88 0.82 0.57 0.39 0.83 0.79 0.80 1.43 0.89 0.47 0.95 0.66 0.33 0.10 0.06 0.08 0.07 0.04 0.03 0.01 0.03 0.02 0.06 0.03 0.00 0.00 0.00 0.00 0.00 0.01 0.01
0.00 0.00 0.00 0.00 0.00 0.00 0.00 0.00 0.00 0.00 0.00 0.00 0.00 0.00 0.00 0.00 0.00 0.00 0.00 0.00 0.00 0.01 0.03 0.09 0.09 0.29 0.19 0.23 0.20 0.17 0.25 0.21 0.19 0.19 0.19 0.20 0.30 0.45 0.42 0.40 0.81 0.71 1.03 1.07 1.48 1.39 1.51 1.40 1.57 1.34 1.29 1.48 1.65 1.44 1.13 0.62 0.81 0.72 0.57 0.73 0.51 0.63 0.63 0.84 0.75 1.09 1.20 1.05 0.93 0.71 0.52 1.32 1.69 1.65 1.14 1.19 0.89 0.66 0.49 0.15 0.13 0.12 0.14 0.13 0.08 0.07 0.05 0.03 0.03 0.03 0.01 0.00 0.01 0.00 0.03 0.00 0.01
0.00 0.00 0.00 0.00 0.00 0.00 0.00 0.00 0.00 0.00 0.00 0.00 0.00 0.00 0.00 0.00 0.00 0.00 0.00 0.01 0.02 0.07 0.05 0.03 0.13 0.28 0.27 0.21 0.16 0.21 0.28 0.21 0.26 0.29 0.22 0.31 0.31 0.55 0.85 0.74 0.73 0.97 1.41 1.29 1.53 1.22 1.50 1.90 1.96 1.46 2.02 1.61 1.50 1.24 1.08 0.55 1.01 1.39 1.00 0.69 0.54 0.75 0.79 0.87 1.11 1.19 1.80 1.52 1.04 1.16 1.02 1.49 1.27 0.78 0.80 1.09 0.81 0.83 0.60 0.83 0.48 0.28 0.35 0.28 0.09 0.12 0.13 0.19 0.12 0.16 0.11 0.01 0.01 0.04 0.05 0.02 0.00
0.00 0.00 0.00 0.00 0.00 0.00 0.00 0.00 0.00 0.00 0.00 0.00 0.00 0.00 0.00 0.00 0.00 0.00 0.00 0.00 0.07 0.06 0.03 0.05 0.09 0.35 0.20 0.23 0.11 0.24 0.35 0.40 0.38 0.36 0.39 0.62 0.48 0.81 1.39 1.08 1.27 0.97 1.10 1.48 1.54 1.33 2.20 2.52 3.08 1.69 1.34 1.33 1.31 1.23 1.32 1.03 1.11 0.96 1.37 1.15 0.90 0.92 1.03 0.72 1.65 2.04 1.84 1.45 1.25 1.49 1.66 1.78 1.56 0.97 1.52 0.94 0.70 0.76 0.67 0.72 0.35 0.36 0.21 0.32 0.13 0.17 0.15 0.17 0.10 0.08 0.09 0.07 0.06 0.03 0.07 0.04 0.02
0.00 0.00 0.00 0.00 0.00 0.00 0.00 0.00 0.00 0.00 0.00 0.00 0.00 0.00 0.00 0.00 0.00 0.00 0.00 0.00 0.01 0.01 0.01 0.04 0.05 0.09 0.15 0.17 0.17 0.20 0.25 0.52 0.70 0.45 1.15 1.09 0.94 1.54 2.09 1.04 0.64 0.91 0.83 1.22 2.09 2.27 1.89 1.68 2.23 1.00 1.32 1.17 1.51 1.97 1.27 1.24 0.98 1.05 1.31 1.32 1.16 1.34 1.26 1.09 1.52 2.08 1.63 1.25 1.01 1.57 1.43 1.38 1.18 1.10 1.19 0.89 0.54 0.77 0.51 0.86 0.77 0.57 0.51 0.63 0.23 0.30 0.32 0.12 0.22 0.29 0.12 0.09 0.06 0.07 0.27 0.23 0.22
0.00 0.00 0.00 0.00 0.00 0.00 0.00 0.00 0.00 0.00 0.00 0.00 0.00 0.00 0.00 0.00 0.00 0.00 0.00 0.00 0.00 0.00 0.01 0.02 0.12 0.10 0.10 0.14 0.17 0.31 0.26 0.22 0.32 1.14 0.95 1.42 1.92 3.88 1.40 1.42 1.11 1.36 2.07 2.42 1.90 1.51 2.32 1.48 1.32 1.11 1.10 1.31 1.07 1.45 1.58 1.24 1.23 1.22 1.15 1.22 1.30 1.14 0.87 1.43 1.61 2.13 1.50 0.92 1.40 1.49 1.55 0.82 0.93 0.81 0.83 0.91 1.10 1.03 0.73 0.77 1.09 0.75 0.36 0.34 0.55 0.26 0.38 0.20 0.28 0.15 0.13 0.18 0.16 0.36 0.44 0.15 0.16
0.00 0.00 0.00 0.00 0.00 0.00 0.00 0.00 0.00 0.00 0.00 0.00 0.00 0.00 0.00 0.00 0.00 0.00 0.00 0.01 0.00 0.00 0.01 0.03 0.06 0.12 0.20 0.12 0.26 0.47 0.48 0.65 0.53 0.81 2.29 2.79 4.53 3.62 2.74 2.27 1.72 2.25 3.65 3.26 1.94 2.14 2.09 1.74 1.73 1.32 1.40 1.44 1.17 1.38 1.58 1.19 0.86 0.86 1.30 1.20 1.28 1.04 1.38 1.39 1.27 1.30 1.49 1.41 1.44 1.28 1.42 1.21 1.02 0.99 1.19 1.12 0.83 0.83 0.93 0.56 0.93 0.95 0.85 0.45 0.44 0.33 0.22 0.32 0.15 0.09 0.12 0.24 0.35 0.33 0.36 0.43 0.22
0.00 0.00 0.00 0.00 0.00 0.00 0.00 0.00 0.00 0.00 0.00 0.00 0.00 0.00 0.00 0.00 0.00 0.00 0.01 0.01 0.02 0.01 0.01 0.06 0.07 0.11 0.15 0.15 0.16 0.31 0.66 0.64 0.82 1.84 3.82 5.71 4.21 2.15 2.38 2.08 2.44 2.22 3.77 3.47 2.26 1.99 2.16 2.54 1.28 1.06 1.45 1.69 1.72 1.74 1.40 1.08 0.92 0.96 1.24 1.13 1.02 0.95 1.18 0.89 1.05 1.33 1.67 1.13 1.05 1.16 0.74 1.52 1.25 1.32 1.07 1.26 1.17 1.46 1.37 1.55 1.27 1.12 1.00 0.85 0.70 0.44 0.36 0.28 0.32 0.22 0.21 0.31 0.27 0.59 0.70 0.39 0.25
0.00 0.00 0.00 0.00 0.00 0.00 0.00 0.00 0.00 0.00 0.00 0.00 0.00 0.00 0.00 0.00 0.00 0.00 0.04 0.03 0.07 0.06 0.03 0.04 0.05 0.06 0.19 0.15 0.25 0.19 0.37 0.41 1.48 4.38 5.37 4.52 3.00 2.12 2.48 3.35 3.94 3.90 3.91 2.15 1.34 1.73 2.26 2.08 1.76 1.80 2.07 1.97 1.74 1.73 1.28 1.56 1.13 0.76 0.93 1.14 1.03 0.78 0.75 0.77 0.78 0.74 1.57 1.27 1.09 0.76 0.99 1.53 1.85 1.45 1.53 0.99 1.38 1.01 1.45 2.05 1.36 0.84 0.93 0.81 0.87 0.52 0.57 0.27 0.21 0.59 0.53 0.67 0.73 0.78 0.54 0.40 0.25
0.00 0.00 0.00 0.00 0.00 0.00 0.00 0.00 0.00 0.00 0.00 0.00 0.00 0.00 0.00 0.00 0.00 0.00 0.01 0.05 0.12 0.08 0.05 0.07 0.08 0.18 0.25 0.15 0.27 0.40 0.42 0.56 3.38 3.61 1.67 1.00 1.25 2.00 2.73 2.79 4.97 5.29 2.38 2.14 2.76 1.83 1.95 1.66 1.36 1.68 1.92 1.42 1.70 1.48 1.55 1.72 1.03 0.97 0.97 0.84 1.13 0.94 0.87 0.83 0.60 1.02 1.05 0.86 0.80 1.10 1.25 1.43 1.41 1.89 1.45 1.30 1.19 1.66 1.44 2.33 2.14 1.21 1.01 0.95 0.81 0.91 0.86 0.49 0.65 0.57 0.63 0.69 0.66 0.56 0.42 0.34 0.21
0.00 0.00 0.00 0.00 0.00 0.00 0.00 0.00 0.00 0.00 0.00 0.00 0.00 0.00 0.00 0.00 0.00 0.00 0.00 0.01 0.17 0.11 0.03 0.05 0.14 0.16 0.34 0.15 0.18 0.26 0.33 0.64 1.91 1.57 0.68 0.82 1.66 1.58 3.21 3.65 3.67 2.85 2.30 2.10 1.66 1.72 1.98 2.14 2.18 1.45 0.83 0.98 1.28 1.54 1.59 1.34 1.56 0.76 0.89 0.96 0.83 1.20 0.71 0.92 0.96 1.44 0.88 0.71 0.88 0.70 1.32 1.01 1.53 1.55 2.00 1.97 1.45 1.93 2.61 2.13 1.74 1.97 1.88 1.09 1.25 1.13 0.88 0.65 0.76 0.83 0.64 0.42 0.35 0.51 0.59 0.65 0.54
0.00 0.00 0.00 0.00 0.00 0.00 0.00 0.00 0.00 0.00 0.00 0.00 0.00 0.00 0.00 0.00 0.00 0.01 0.00 0.02 0.08 0.19 0.12 0.07 0.08 0.15 0.19 0.18 0.13 0.26 0.36 1.32 1.23 0.47 0.84 0.97 0.67 1.00 1.89 1.99 1.65 1.96 1.98 2.39 1.87 1.87 1.42 2.21 1.43 1.59 1.22 1.43 1.54 1.79 1.78 1.80 1.11 0.68 0.74 0.80 0.97 0.79 0.55 1.01 1.36 1.24 0.90 0.60 0.86 0.77 1.17 2.56 1.41 1.73 1.69 2.10 1.01 2.17 2.52 1.69 1.42 1.58 1.92 1.38 1.20 1.14 0.95 0.47 0.86 0.78 0.61 0.51 0.60 0.92 0.45 0.46 0.43
0.00 0.00 0.00 0.00 0.00 0.00 0.00 0.00 0.00 0.00 0.00 0.00 0.00 0.00 0.00 0.00 0.00 0.01 0.01 0.01 0.01 0.02 0.07 0.07 0.13 0.12 0.16 0.17 0.15 0.25 0.47 1.42 0.85 0.79 0.65 0.99 1.34 1.84 1.65 1.63 1.15 1.35 1.36 1.62 1.55 1.97 0.92 1.46 1.46 1.17 1.64 1.27 2.90 2.24 2.12 2.76 2.00 1.10 1.12 1.01 1.09 0.83 0.71 0.79 1.08 0.87 1.00 1.15 1.25 2.17 1.62 1.22 0.92 1.10 2.39 1.85 1.73 2.12 1.80 1.78 2.34 1.78 2.31 1.46 2.14 1.84 1.39 1.14 0.88 0.90 0.67 0.67 0.85 0.62 0.57 0.58 0.35
0.00 0.00 0.00 0.00 0.00 0.00 0.00 0.00 0.00 0.00 0.00 0.00 0.00 0.00 0.00 0.00 0.01 0.02 0.01 0.05 0.02 0.02 0.05 0.09 0.22 0.12 0.16 0.10 0.13 0.22 0.32 0.58 0.95 0.55 1.03 0.72 1.11 1.04 0.87 1.27 1.26 1.15 1.20 1.31 1.67 1.37 1.74 2.26 1.51 1.35 1.22 1.74 2.37 3.18 2.63 2.34 1.69 1.02 1.30 1.34 1.36 0.92 0.88 0.89 0.98 1.40 1.21 1.15 1.27 1.76 1.14 1.45 2.42 1.48 2.18 2.60 2.07 1.48 1.75 1.32 2.16 2.88 2.39 1.95 1.97 2.21 1.34 0.90 0.98 0.85 1.21 1.09 0.60 0.44 0.66 0.83 0.30
0.00 0.00 0.00 0.00 0.00 0.00 0.00 0.00 0.00 0.00 0.00 0.00 0.00 0.00 0.00 0.00 0.04 0.09 0.07 0.04 0.02 0.02 0.05 0.05 0.11 0.24 0.16 0.14 0.15 0.23 0.21 0.19 0.23 0.27 0.24 0.37 0.41 0.85 0.68 0.92 1.29 1.11 1.06 1.43 1.85 1.51 1.28 1.48 1.45 1.59 1.95 1.66 2.79 3.32 1.60 1.55 1.37 1.39 2.01 1.36 1.13 1.49 2.05 1.74 0.82 1.01 0.82 0.88 1.11 1.35 0.74 1.05 0.91 1.71 2.29 1.52 1.96 2.60 1.82 2.38 2.43 2.32 2.12 1.40 1.25 0.93 0.63 1.01 1.97 0.88 1.16 1.23 1.19 0.81 0.50 0.68 0.40
0.00 0.00 0.00 0.00 0.00 0.00 0.00 0.00 0.00 0.00 0.00 0.00 0.00 0.00 0.00 0.00 0.01 0.08 0.37 0.17 0.02 0.04 0.05 0.08 0.10 0.20 0.32 0.27 0.17 0.23 0.23 0.20 0.18 0.22 0.19 0.24 0.32 0.50 0.59 0.79 1.06 1.15 1.36 1.57 1.05 1.26 1.23 0.91 1.14 1.55 1.80 2.23 2.70 1.92 1.18 1.63 1.62 1.83 1.61 1.56 1.41 1.35 1.66 1.14 0.81 0.64 0.53 0.70 0.64 0.48 0.81 1.09 1.37 1.83 1.12 0.94 1.78 2.26 1.90 1.59 2.60 2.24 1.22 1.68 1.60 1.18 0.97 0.86 1.20 1.41 2.08 1.36 1.36 1.01 1.16 1.15 1.67
0.00 0.00 0.00 0.00 0.00 0.00 0.00 0.00 0.00 0.00 0.00 0.00 0.00 0.00 0.00 0.00 0.00 0.01 0.01 0.02 0.01 0.02 0.06 0.12 0.11 0.24 0.37 0.25 0.31 0.29 0.25 0.26 0.27 0.17 0.26 0.35 0.28 0.74 0.99 1.11 1.13 1.36 0.95 0.87 0.94 1.01 1.00 1.16 1.18 1.12 1.35 2.27 3.07 2.22 2.28 1.68 1.76 1.36 0.88 1.00 0.74 0.64 0.66 0.92 0.48 0.29 0.29 0.40 0.74 1.10 0.53 1.08 1.02 1.07 0.66 1.18 1.19 1.22 1.54 1.57 2.57 1.62 1.55 1.73 1.42 1.42 1.08 0.99 0.72 2.01 2.17 2.71 2.18 1.40 1.47 1.42 1.89
0.00 0.00 0.00 0.00 0.00 0.00 0.00 0.00 0.00 0.00 0.00 0.00 0.00 0.00 0.00 0.00 0.00 0.00 0.01 0.01 0.01 0.03 0.20 0.37 0.13 0.32 0.41 0.29 0.73 0.60 0.32 0.40 0.33 0.26 0.39 0.39 0.86 0.71 1.01 0.94 0.78 1.17 1.41 1.70 0.99 1.42 1.76 1.36 2.09 1.11 1.67 2.07 2.42 1.52 1.24 1.36 1.27 0.96 0.98 0.72 0.56 0.64 0.32 0.46 0.43 0.41 0.29 0.52 0.76 0.92 0.74 0.77 0.62 1.22 1.17 1.23 1.03 1.18 0.90 0.86 1.22 1.31 2.01 1.52 1.71 1.58 1.98 1.41 1.36 1.73 1.66 1.88 2.17 1.79 1.36 1.45 1.49
0.00 0.00 0.00 0.00 0.00 0.00 0.00 0.00 0.00 0.00 0.00 0.00 0.00 0.00 0.00 0.00 0.00 0.00 0.01 0.05 0.07 0.12 0.40 0.21 0.22 0.16 0.85 1.23 0.32 0.42 0.38 1.01 1.07 1.07 0.61 1.02 1.38 1.18 1.00 0.77 0.48 0.99 0.89 0.95 1.47 1.37 0.71 0.76 1.07 0.95 2.17 2.55 1.35 1.65 1.14 1.16 1.03 0.89 0.73 0.67 0.86 0.77 0.59 0.60 0.49 0.66 0.51 1.15 0.43 0.88 1.08 0.96 0.78 1.40 1.10 0.96 0.69 0.93 0.77 0.58 0.69 0.62 1.25 1.45 1.82 1.67 1.25 1.63 1.05 1.21 0.88 1.06 1.48 2.19 1.78 1.41 1.87
0.00 0.00 0.00 0.00 0.00 0.00 0.00 0.00 0.00 0.00 0.00 0.00 0.00 0.00 0.00 0.00 0.00 0.00 0.01 0.04 0.07 0.04 0.14 0.12 0.17 0.27 0.76 0.37 0.67 0.44 0.49 0.39 0.90 1.21 1.21 1.01 0.90 0.87 1.11 0.50 0.38 0.59 1.15 0.95 1.13 1.63 1.28 1.43 0.91 1.01 1.21 1.34 1.83 1.29 1.46 1.49 0.98 0.92 1.22 1.14 0.98 1.10 1.08 0.81 0.64 0.63 0.81 0.67 0.89 1.12 0.70 0.84 0.77 1.10 1.27 1.21 1.46 1.27 0.99 0.70 0.65 0.73 0.51 0.90 1.55 0.96 1.02 1.76 1.26 1.25 1.42 1.42 1.47 1.71 1.54 1.51 2.03
0.00 0.00 0.00 0.00 0.00 0.00 0.00 0.00 0.00 0.00 0.00 0.00 0.00 0.00 0.00 0.00 0.00 0.00 0.02 0.02 0.04 0.03 0.05 0.09 0.42 1.01 0.67 0.46 0.33 0.37 0.39 0.37 0.74 0.85 0.69 0.53 0.87 1.44 0.97 0.42 0.35 0.53 0.71 0.83 0.83 1.26 1.34 1.64 1.26 1.32 0.62 0.58 0.65 0.57 0.85 0.87 1.03 1.15 0.95 1.25 0.79 1.04 1.12 1.01 0.87 0.58 0.70 0.50 1.32 1.16 1.03 0.95 0.78 1.25 1.11 1.16 1.30 1.29 1.02 0.58 0.67 0.59 0.59 0.86 0.57 0.71 0.52 1.35 1.88 2.21 1.40 1.34 2.22 1.46 1.25 1.80 1.35
0.00 0.00 0.00 0.00 0.00 0.00 0.03 0.00 0.00 0.00 0.00 0.00 0.00 0.01 0.01 0.00 0.00 0.00 0.02 0.01 0.03 0.03 0.07 0.34 0.55 0.22 0.48 0.91 0.90 0.44 0.15 0.44 1.29 0.90 1.15 0.73 1.18 1.54 0.68 0.39 0.38 0.29 0.37 1.02 1.45 1.06 1.24 2.00 2.83 0.90 0.33 0.42 0.52 1.04 1.42 0.90 1.10 1.12 0.85 1.29 1.07 1.38 1.19 1.05 0.76 0.81 0.84 0.99 1.10 1.30 1.20 0.78 0.95 0.97 0.99 0.95 0.93 1.04 0.82 0.56 0.72 0.80 0.74 0.52 0.52 0.90 0.80 0.65 1.05 1.70 1.37 1.50 1.33 1.92 0.88 1.30 2.57
0.00 0.00 0.00 0.00 0.00 0.00 0.00 0.07 0.00 0.00 0.00 0.00 0.00 0.00 0.01 0.00 0.00 0.00 0.00 0.02 0.07 0.19 0.41 0.75 0.61 0.82 0.83 0.56 0.43 0.48 0.61 1.11 0.78 1.22 1.30 0.92 1.35 1.23 0.94 0.77 0.41 0.53 0.74 0.67 1.17 1.12 1.33 1.61 1.42 1.17 0.81 0.80 1.77 0.83 0.76 0.66 0.67 0.52 0.76 0.97 0.93 1.22 0.74 0.63 0.56 0.51 0.55 0.76 0.36 0.63 0.66 0.26 0.53 0.92 1.16 0.93 0.59 0.77 1.01 0.69 0.50 0.91 0.96 0.77 0.46 0.49 0.48 0.57 0.56 0.66 0.99 1.07 1.13 1.17 1.48 1.56 1.51
0.00 0.00 0.00 0.00 0.00 0.00 0.00 0.00 0.00 0.00 0.01 0.00 0.00 0.02 0.01 0.01 0.00 0.01 0.00 0.01 0.11 0.26 0.20 0.15 0.34 0.73 0.77 0.80 0.71 0.68 0.66 0.97 1.35 0.70 0.67 1.30 1.11 1.43 1.70 1.12 0.66 1.08 1.35 1.47 1.48 1.21 0.84 0.71 1.14 1.41 1.34 1.26 1.18 0.73 0.77 0.80 1.00 0.82 0.52 0.57 0.48 0.61 0.68 0.33 0.57 0.44 0.36 0.34 0.25 0.19 0.35 0.30 0.63 0.84 0.54 0.78 0.75 0.83 0.95 0.41 0.59 0.86 0.89 0.97 0.50 0.35 0.46 0.68 0.63 0.68 0.78 0.73 1.10 1.09 1.00 1.14 1.15
0.00 0.03 0.00 0.00 0.00 0.00 0.00 0.00 0.00 0.00 0.03 0.05 0.00 0.01 0.03 0.01 0.02 0.00 0.00 0.01 0.05 0.25 0.16 0.16 0.10 0.10 0.28 0.15 0.23 0.23 0.22 0.49 0.80 0.80 0.84 0.79 0.79 0.90 0.82 1.17 0.92 0.99 1.41 2.88 2.25 1.17 1.02 1.02 0.61 1.91 1.67 1.63 1.65 1.19 0.58 0.71 1.08 0.64 0.39 0.62 0.50 0.43 0.42 0.42 0.48 0.46 0.40 0.25 0.47 0.57 0.31 0.52 0.38 0.38 0.61 0.51 0.56 0.51 0.89 0.62 0.76 0.56 0.75 0.93 0.43 0.37 0.43 0.21 0.37 0.54 0.92 0.85 0.55 1.27 0.85 1.16 1.08
0.02 0.01 0.00 0.00 0.00 0.00 0.00 0.00 0.00 0.02 0.00 0.00 0.00 0.00 0.03 0.02 0.07 0.00 0.01 0.00 0.03 0.07 0.08 0.16 0.10 0.24 0.19 0.27 0.28 0.56 0.47 0.58 0.39 0.48 0.53 0.49 0.44 0.55 0.94 1.30 1.36 1.06 1.41 1.88 1.67 1.84 1.10 0.70 1.63 2.02 2.41 1.09 0.53 0.80 0.63 1.02 0.90 0.61 0.66 0.90 1.09 0.69 0.61 0.67 0.40 0.32 0.40 0.20 0.17 0.19 0.31 0.25 0.12 0.32 0.65 0.65 0.55 0.64 0.32 0.79 0.82 0.59 0.60 0.62 0.41 0.29 0.30 0.28 0.65 0.76 0.86 0.77 0.77 0.75 0.75 0.62 0.54
0.02 0.00 0.00 0.00 0.00 0.01 0.00 0.00 0.00 0.05 0.01 0.05 0.00 0.00 0.00 0.05 0.05 0.00 0.00 0.02 0.06 0.08 0.11 0.12 0.14 0.28 0.23 0.25 0.27 0.56 0.50 0.55 0.24 0.41 0.60 0.40 0.56 0.70 2.04 1.52 1.03 1.09 1.24 1.09 1.83 1.66 2.22 1.58 1.71 1.66 1.17 0.98 0.95 1.07 0.95 0.70 0.81 0.63 0.85 0.74 0.94 1.01 0.51 0.48 0.37 0.26 0.17 0.15 0.10 0.12 0.12 0.15 0.10 0.13 0.52 0.76 0.44 0.51 0.41 0.71 0.43 0.39 0.40 0.36 0.40 0.34 0.37 0.57 0.52 0.43 0.77 0.71 0.75 0.66 0.47 0.61 0.79
0.00 0.00 0.00 0.00 0.00 0.00 0.00 0.01 0.00 0.08 0.00 0.02 0.05 0.10 0.03 0.05 0.03 0.04 0.06 0.01 0.09 0.16 0.19 0.14 0.28 0.37 0.34 0.27 0.44 0.41 0.31 0.31 0.45 0.40 0.27 0.32 0.44 0.83 0.75 0.44 0.30 0.72 1.78 2.95 2.69 2.21 2.01 2.45 2.81 1.38 0.79 1.14 0.78 0.88 0.61 1.46 1.24 1.40 0.92 0.78 0.72 0.62 0.46 0.42 0.21 0.15 0.15 0.12 0.17 0.11 0.10 0.10 0.12 0.23 0.59 0.65 0.44 0.53 0.32 0.28 0.37 0.36 0.18 0.21 0.32 0.34 0.39 0.84 0.83 0.64 0.79 0.70 0.67 0.59 0.39 0.58 0.73
0.00 0.00 0.00 0.00 0.00 0.01 0.00 0.00 0.06 0.04 0.00 0.02 0.02 0.02 0.00 0.09 0.14 0.17 0.11 0.06 0.05 0.11 0.23 0.32 0.32 0.41 0.61 0.26 0.23 0.37 0.36 0.31 0.56 0.42 0.28 0.32 0.44 0.69 0.82 0.44 0.72 0.88 1.89 2.92 3.04 2.55 2.89 2.99 2.72 1.05 1.33 1.53 1.18 1.33 0.73 1.21 1.01 0.51 0.72 0.98 0.88 0.56 0.32 0.19 0.16 0.12 0.15 0.08 0.07 0.06 0.09 0.06 0.15 0.12 0.29 0.90 0.63 0.48 0.28 0.35 0.27 0.34 0.40 0.19 0.22 0.26 0.72 1.02 0.80 0.57 0.43 0.68 0.89 0.57 0.46 0.47 0.55
0.00 0.00 0.02 0.00 0.02 0.00 0.00 0.04 0.03 0.08 0.00 0.03 0.02 0.01 0.02 0.07 0.19 0.17 0.11 0.09 0.11 0.08 0.13 0.21 0.42 0.24 0.25 0.27 0.26 0.27 0.46 0.35 0.36 0.41 0.44 0.56 0.88 1.20 1.34 1.01 1.17 1.83 2.53 2.05 2.25 3.36 3.97 3.29 1.73 1.78 1.69 1.61 2.11 1.90 1.31 1.04 0.57 0.65 0.76 1.37 1.21 0.77 0.34 0.19 0.20 0.08 0.06 0.07 0.06 0.10 0.15 0.06 0.10 0.14 0.48 1.06 0.53 0.27 0.20 0.20 0.19 0.19 0.21 0.17 0.22 0.62 0.70 0.52 0.49 0.95 0.86 0.95 0.84 1.03 0.72 0.62 0.80
0.00 0.00 0.01 0.19 0.16 0.03 0.04 0.05 0.02 0.01 0.04 0.04 0.00 0.00 0.07 0.01 0.31 0.15 0.16 0.14 0.34 0.13 0.11 0.14 0.16 0.15 0.18 0.29 0.21 0.30 0.49 0.49 0.40 0.56 0.87 1.17 1.13 0.57 1.04 1.69 1.35 1.51 1.74 2.50 3.38 1.99 1.70 1.83 1.95 1.18 1.32 2.46 3.07 1.38 0.98 0.70 0.65 0.87 1.27 1.02 1.00 0.79 0.61 0.25 0.17 0.05 0.14 0.12 0.07 0.05 0.12 0.06 0.19 0.24 0.19 0.65 0.72 0.52 0.15 0.12 0.14 0.14 0.19 0.17 0.22 0.46 0.52 0.47 0.57 1.19 0.72 0.95 0.97 1.00 0.68 0.90 1.09
0.00 0.01 0.13 0.04 0.11 0.06 0.02 0.07 0.01 0.05 0.03 0.01 0.04 0.01 0.04 0.23 0.23 0.23 0.48 0.27 0.25 0.12 0.10 0.13 0.13 0.20 0.21 0.32 0.33 0.48 0.46 0.94 1.78 1.49 1.45 1.26 0.84 1.05 0.90 0.95 1.20 1.78 1.80 2.67 1.75 0.88 1.19 1.91 2.13 1.64 1.31 2.20 1.58 1.06 0.53 0.42 0.42 0.77 1.34 1.41 1.15 1.02 0.72 0.36 0.40 0.19 0.10 0.11 0.14 0.24 0.11 0.13 0.21 0.18 0.44 0.25 0.36 0.11 0.10 0.16 0.35 0.26 0.21 0.23 0.27 0.60 0.59 0.66 0.85 0.43 0.49 0.60 0.67 0.51 0.55 0.68 0.71
0.01 0.00 0.01 0.09 0.13 0.07 0.02 0.06 0.05 0.02 0.18 0.09 0.01 0.01 0.08 0.07 1.00 0.27 0.37 0.36 0.35 0.33 0.35 0.43 0.43 0.17 0.20 0.24 0.35 0.42 1.22 0.89 1.22 0.93 0.43 0.90 1.30 1.11 1.03 1.26 0.97 0.92 0.64 0.78 0.81 1.33 1.02 2.33 2.12 2.43 2.24 2.05 1.30 1.09 0.63 0.37 0.30 0.98 1.37 2.00 1.55 0.62 0.23 0.41 0.40 0.17 0.38 0.44 0.52 0.40 0.42 0.56 0.24 0.32 0.31 0.34 0.48 0.42 0.33 0.47 0.48 0.42 0.29 0.16 0.32 0.44 0.48 0.48 0.88 0.62 0.48 0.41 0.56 0.53 0.46 0.44 0.50
0.01 0.00 0.00 0.05 0.05 0.00 0.09 0.30 0.06 0.16 0.08 0.04 0.05 0.08 0.48 0.68 0.79 0.51 0.21 0.20 1.12 1.51 1.24 1.27 0.81 0.82 0.34 0.30 0.40 0.99 0.94 0.78 0.75 0.72 0.64 0.48 0.45 0.59 0.78 0.80 0.77 0.77 0.80 0.80 1.03 2.07 1.80 2.31 2.55 3.37 2.76 1.73 1.56 0.87 0.32 0.37 0.77 1.54 1.24 1.08 0.71 0.43 0.26 0.37 0.57 0.25 0.62 0.49 0.57 0.42 0.20 0.17 0.12 0.08 0.27 0.32 0.41 0.85 0.74 0.90 0.55 0.69 0.57 0.51 0.57 0.31 0.35 0.82 1.05 0.90 0.50 0.86 0.66 0.52 0.50 0.37 0.44
0.32 0.00 0.01 0.03 0.02 0.01 0.02 0.00 0.00 0.00 0.00 0.03 0.01 0.13 0.25 0.20 0.77 0.43 0.77 0.43 0.48 1.05 1.53 1.68 1.89 1.91 1.62 1.65 1.71 1.54 0.91 0.99 0.91 1.04 0.85 0.85 0.96 1.42 1.98 1.81 1.42 1.54 1.31 2.01 3.29 2.10 2.32 2.77 2.77 2.32 2.60 1.96 2.39 0.67 0.74 1.09 1.48 1.97 0.87 0.64 0.61 0.74 0.47 0.26 0.22 0.38 0.48 0.50 0.50 0.54 0.50 0.33 0.37 0.47 0.38 0.37 0.35 0.36 0.40 0.33 0.40 0.42 0.53 0.51 0.50 0.45 0.66 0.68 0.97 1.67 0.99 0.88 0.61 0.65 0.61 0.55 0.46
0.06 0.03 0.03 0.00 0.00 0.02 0.02 0.16 0.08 0.01 0.04 0.06 0.02 0.05 0.30 0.06 0.62 0.50 0.46 0.74 1.13 0.88 0.78 1.96 1.70 1.72 1.89 1.98 1.31 1.27 1.58 1.52 0.85 0.55 1.31 1.19 1.20 1.64 2.08 1.76 0.98 1.03 1.16 1.15 0.98 1.03 1.65 3.42 2.67 2.38 2.56 1.96 1.62 1.91 1.33 1.19 0.61 0.34 0.16 0.30 0.29 0.47 0.34 0.19 0.26 0.44 0.76 0.95 0.24 0.22 0.23 0.53 0.38 0.39 0.37 0.43 0.31 0.41 0.34 0.37 0.38 0.48 0.68 0.46 0.43 0.43 0.64 0.86 1.52 0.86 0.66 0.62 0.94 0.95 0.77 0.94 0.90
0.00 0.07 0.01 0.01 0.09 0.07 0.04 0.00 0.02 0.03 0.02 0.09 0.02 0.10 0.10 0.13 0.52 0.27 0.50 0.44 0.62 0.53 0.62 0.45 0.98 1.49 2.13 2.26 2.31 1.93 1.37 0.73 0.82 0.94 1.22 2.43 2.65 2.33 1.74 1.48 1.55 1.56 1.22 0.87 0.83 0.73 0.80 2.62 2.94 2.51 2.58 2.01 2.33 1.26 1.15 0.86 0.62 0.31 0.17 0.16 0.19 0.48 0.41 0.40 0.67 0.60 1.23 0.45 0.45 0.38 0.19 0.20 0.32 0.35 0.39 0.27 0.30 0.35 0.43 0.51 0.69 0.52 0.88 0.71 0.50 0.45 0.48 0.64 0.87 0.69 0.79 1.30 0.59 0.73 0.54 0.47 0.47
0.00 0.00 0.00 0.00 0.00 0.04 0.06 0.03 0.10 0.01 0.25 0.02 0.15 0.07 0.13 0.19 0.34 0.14 0.30 0.62 0.81 0.35 0.31 0.40 0.52 0.83 0.96 1.26 1.25 1.04 0.65 0.51 0.90 1.67 3.27 2.55 1.56 1.34 1.16 1.17 1.18 1.02 0.62 0.60 0.66 0.78 1.31 1.47 1.47 2.48 1.78 1.46 1.90 1.59 1.21 1.34 0.66 0.39 0.61 0.61 0.21 0.39 0.47 0.21 0.25 0.37 0.40 0.48 0.55 0.32 0.36 0.33 0.26 0.31 0.33 0.24 0.34 0.25 0.37 0.31 0.26 0.25 0.84 0.84 0.84 0.34 0.41 0.56 0.47 0.62 0.94 0.77 0.86 0.61 0.72 0.76 0.46
0.01 0.00 0.00 0.01 0.01 0.05 0.01 0.14 0.02 0.12 0.16 0.07 0.12 0.17 0.46 0.56 0.14 0.19 0.18 0.34 0.82 0.84 0.47 0.54 0.50 0.44 0.71 0.88 1.30 0.94 0.77 0.92 1.67 2.44 2.11 2.25 2.18 1.81 0.81 0.91 0.88 1.07 1.51 0.95 0.61 1.02 1.23 1.62 1.84 1.33 0.95 1.31 1.29 0.97 0.63 0.91 0.44 0.61 0.54 0.63 0.55 0.80 0.64 0.32 0.39 0.36 0.34 0.24 0.54 0.28 0.32 0.31 0.43 0.41 0.29 0.30 0.37 0.33 0.29 0.20 0.29 0.24 0.45 0.36 0.36 0.30 0.66 0.66 0.57 0.27 0.46 0.86 1.33 0.61 0.53 0.61 0.76
0.01 0.01 0.06 0.02 0.10 0.09 0.07 0.09 0.01 0.05 0.06 0.12 0.03 0.16 0.44 0.43 0.09 0.28 0.26 0.27 0.21 0.50 0.74 0.60 1.05 0.88 1.57 1.34 1.24 1.53 2.63 2.95 2.34 1.86 1.60 1.54 1.44 1.20 0.78 0.72 0.77 1.03 1.24 0.96 0.60 1.79 1.44 2.09 1.97 1.38 1.00 0.61 0.38 0.83 0.81 0.75 0.95 1.05 0.67 1.08 0.44 0.59 0.56 1.02 1.07 0.58 0.28 0.30 0.33 0.19 0.25 0.33 0.58 0.62 0.65 0.18 0.28 0.55 0.66 0.36 0.35 0.34 0.28 0.26 0.55 0.51 0.29 0.44 0.47 0.37 0.76 0.99 0.93 0.57 0.63 0.71 0.58